#timestamp,LO_Frequency,Hit,StdDev 
1646794815.4,286047000.3,N
1646794835.2,286046999.8,N
1646794855.1,286047000.2,N
1646794856.0,286047000.2,N
1646794875.8,286047001.0,N
1646794895.7,286047000.4,N
1646794915.5,286047002.6,Y
1646794935.3,286047001.3,P
1646794955.2,286047002.4,P
1646794975.0,286047002.5,N
1646794975.9,286047002.5,N
1646794995.8,286047002.4,N
1646795015.6,286047001.9,N
1646795035.5,286047003.9,Y
1646795055.3,286046998.1,P
1646795075.1,286046998.8,N
1646795095.9,286046999.5,N
1646795115.7,286046997.0,N
1646795135.6,286046999.4,N
1646795155.4,286046998.4,N
1646795175.2,286046998.9,N
1646795195.1,286047000.1,N
1646795196.0,286047000.1,N
1646795215.8,286047001.1,N
1646795235.6,286046998.7,N
1646795255.5,286046998.5,N
1646795275.3,286046998.2,N
1646795295.2,286046998.6,N
1646795315.9,286046996.7,N
1646795335.7,286046999.4,N
1646795355.6,286047001.2,N
1646795375.4,286046998.9,N
1646795395.2,286046999.4,N
1646795415.1,286046999.0,N
1646795416.0,286046999.0,N
1646795435.8,286046999.3,N
1646795455.7,286046999.4,N
1646795475.5,286046999.0,N
1646795495.3,286046999.2,N
1646795515.2,286046998.7,N
1646795535.0,286047000.1,N
1646795535.9,286047000.1,N
1646795555.8,286046998.1,N
1646795575.6,286046999.4,N
1646795595.4,286046999.3,N
1646795615.3,286046997.2,N
1646795635.1,286046997.4,N
1646795655.8,286047001.2,N
1646795675.7,286046998.4,N
1646795695.5,286047001.0,N
1646795715.4,286046998.2,N
1646795735.2,286047001.0,N
1646795755.0,286047001.1,N
1646795755.9,286047001.1,N
1646795775.8,286046998.5,N
1646795795.6,286046998.9,N
1646795815.4,286047001.1,N
1646795835.3,286046998.1,N
1646795855.1,286047002.7,N
1646795875.9,286046999.3,N
1646795895.7,286046999.0,N
1646795915.5,286047002.0,N
1646795935.4,286047001.7,N
1646795955.2,286047001.1,N
1646795975.0,286046998.1,N
1646795975.9,286046998.1,N
1646795995.8,286046999.4,N
1646796015.6,286046999.0,N
1646796035.5,286046996.7,N
1646796055.3,286046998.7,N
1646796075.1,286046996.6,N
1646796095.9,286046995.0,Y
1646796115.7,286046996.8,P
1646796135.6,286046996.9,N
1646796155.4,286046999.5,N
1646796175.2,286046998.1,N
1646796195.1,286046998.7,N
1646796196.0,286046998.7,N
1646796215.8,286047000.9,N
1646796235.6,286047002.6,N
1646796255.5,286047002.7,N
1646796275.3,286047000.5,N
1646796295.2,286047002.5,N
1646796345.9,286046999.9,E
1646796355.8,286046999.8,N
1646796375.7,286046999.8,P
1646796395.5,286047001.6,P
1646796415.4,286047001.4,N
1646796435.2,286047002.6,Y
1646796455.0,286047000.4,P
1646796455.9,286047000.4,N
1646796475.8,286047001.6,P
1646796495.6,286046998.1,Y
1646796515.5,286046998.8,P
1646796535.3,286046996.6,P
1646796555.1,286046998.1,N
1646796575.9,286046999.6,N
1646796595.7,286046996.9,N
1646796615.5,286046996.7,N
1646796635.4,286046999.5,N
1646796655.2,286047000.9,N
1646796675.1,286046999.3,N
1646796676.0,286046999.3,N
1646796695.8,286046996.9,N
1646796715.6,286046996.7,N
1646796735.5,286046996.9,N
1646796755.3,286046998.4,N
1646796775.1,286046997.0,N
1646796795.9,286046996.9,N
1646796815.7,286046997.5,N
1646796835.6,286046997.8,N
1646796855.4,286046997.2,N
1646796875.2,286046997.2,N
1646796895.1,286046999.1,N
1646796896.0,286046999.1,N
1646796915.8,286046996.8,N
1646796935.7,286046997.2,N
1646796955.5,286046997.9,N
1646796975.3,286046997.0,N
1646796995.2,286046997.0,N
1646797015.0,286046997.5,N
1646797015.9,286046997.5,N
1646797035.7,286046996.8,N
1646797055.6,286046997.5,N
1646797075.4,286046997.6,N
1646797095.3,286046997.2,N
1646797115.1,286046999.4,N
1646797135.8,286047000.5,N
1646797155.7,286047000.9,N
1646797175.5,286046999.8,N
1646797195.4,286047002.6,N
1646797215.2,286047000.2,N
1646797235.0,286047001.0,N
1646797235.9,286047001.0,N
1646797255.8,286046998.1,N
1646797275.6,286046998.3,N
1646797295.4,286046997.9,N
1646797315.3,286046994.9,Y
1646797335.1,286046997.1,P
1646797355.9,286046998.8,N
1646797375.7,286046999.4,N
1646797395.5,286046998.1,N
1646797415.4,286046998.3,N
1646797435.2,286046999.3,N
1646797455.1,286046996.5,Y
1646797456.0,286046996.5,P
1646797475.8,286047001.2,N
1646797495.6,286047001.3,N
1646797515.5,286047002.6,N
1646797535.3,286047001.9,N
1646797555.1,286047004.3,N
1646797575.9,286047001.6,N
1646797595.7,286047001.3,N
1646797615.6,286047001.4,N
1646797635.4,286046999.8,N
1646797655.2,286047001.8,N
1646797675.1,286047001.5,N
1646797676.0,286047001.5,N
1646797695.8,286047002.8,N
1646797715.7,286046999.9,N
1646797735.5,286047004.4,N
1646797755.3,286047004.1,N
1646797775.2,286047005.1,N
1646797795.0,286047002.9,N
1646797795.9,286047002.9,N
1646797815.8,286047001.7,N
1646797835.6,286047002.0,N
1646797855.4,286047004.0,N
1646797875.3,286047003.3,N
1646797895.1,286047003.4,N
1646797915.8,286047003.2,N
1646797935.7,286047004.2,N
1646797955.5,286047004.2,N
1646797975.4,286047004.4,N
1646797995.2,286047004.1,N
1646798015.0,286047004.4,N
1646798015.9,286047004.4,Y
1646798035.8,286047000.0,P
1646798055.6,286047000.8,N
1646798075.4,286047002.4,N
1646798095.3,286047000.6,N
1646798115.1,286046998.2,N
1646798135.9,286047000.4,N
1646798155.7,286046998.2,N
1646798175.5,286046999.3,N
1646798195.4,286047000.8,N
1646798215.2,286047001.2,N
1646798235.0,286046998.8,N
1646798236.0,286046998.8,N
1646798255.8,286046999.6,N
1646798275.6,286046997.2,N
1646798295.5,286046999.6,N
1646798315.3,286046998.9,N
1646798335.1,286046999.0,N
1646798355.9,286046999.3,N
1646798375.7,286047000.8,N
1646798395.5,286047002.6,N
